Location: Unspecified
(0.0000°N, 0.0000°E)
Time: 23:35:25
(UTC+00:00)

deb Blok Kosmos - Pass Details

Date: 15 December 2025
Orbit: 1262 x 1713 km, 55.4° (Epoch: 19 January)

Event Time Altitude Azimuth Distance (km) Brightness Sun altitude
Rises 18:44:03 0° 199° (SSW) 4,439 ? -11.2°
Reaches altitude 10° 18:47:00 10° 193° (SSW) 3,520 ? -11.8°
Maximum altitude 18:55:25 49° 120° (ESE) 1,892 ? -13.8°
Enters shadow 19:02:20 19° 54° (NE) 3,176 ? -15.3°
